FW3182 Weather Reports


Display with metric or nautical units.
time (UTC)temp
F
wind
direction
speed
MPH
gust
MPH
rain 1hr
in
rain 24hr
in
rain mn
in
humidity
%
barometer
mb
20260904093703 75 196 0.0 0.0 0.00 0.00 0.00 85 1012.0
20260904093204 75 196 0.0 0.0 0.00 0.00 0.00 85 1012.0
20260904092704 75 196 0.0 0.0 0.00 0.00 0.00 84 1011.9
20260904092204 75 196 0.0 1.0 0.00 0.00 0.00 84 1011.9
20260904091704 75 197 0.0 0.0 0.00 0.00 0.00 84 1011.9
20260904091204 75 197 0.0 0.0 0.00 0.00 0.00 83 1011.9
20260904090703 76 197 0.0 0.0 0.00 0.00 0.00 83 1011.9
20260904090204 76 197 0.0 0.0 0.00 0.00 0.00 83 1011.8
20260904085703 76 197 0.0 0.0 0.00 0.00 0.00 82 1011.8
20260904085204 76 197 0.0 0.0 0.00 0.00 0.00 82 1011.7
20260904084204 76 197 0.0 0.0 0.00 0.00 0.00 82 1011.6
20260904083704 76 197 0.0 1.0 0.00 0.00 0.00 82 1011.6
20260904082704 76 185 0.0 0.0 0.00 0.00 0.00 81 1011.6
20260904081204 77 118 0.0 0.0 0.00 0.00 0.00 80 1011.5
20260904080704 77 117 0.0 0.0 0.00 0.00 0.00 80 1011.4
20260904080204 77 117 0.0 1.0 0.00 0.00 0.00 79 1011.5
20260904075704 77 117 0.0 1.0 0.00 0.00 0.00 79 1011.6
20260904074705 77 112 0.0 1.0 0.00 0.00 0.00 79 1011.5
20260904074204 77 115 0.0 1.0 0.00 0.00 0.00 79 1011.5
20260904072704 77 190 0.0 0.0 0.00 0.00 0.00 79 1011.6
20260904072204 77 191 0.0 0.0 0.00 0.00 0.00 79 1011.7
20260904071704 78 191 0.0 0.0 0.00 0.00 0.00 79 1011.7
20260904071204 78 132 0.0 0.0 0.00 0.00 0.00 79 1011.7
20260904070704 78 131 0.0 0.0 0.00 0.00 0.00 78 1011.7
20260904070204 78 131 0.0 0.0 0.00 0.00 0.00 78 1011.8
20260904065704 78 131 0.0 0.0 0.00 0.00 0.00 78 1011.8
20260904065203 78 131 0.0 0.0 0.00 0.00 0.00 78 1011.9
20260904064204 78 131 0.0 0.0 0.00 0.00 0.00 78 1011.7
20260904063704 78 131 0.0 0.0 0.00 0.00 0.00 78 1011.7
20260904063203 78 131 0.0 0.0 0.00 0.00 0.00 78 1011.8
20260904062704 78 131 0.0 0.0 0.00 0.00 0.00 78 1011.8
20260904062204 78 131 0.0 0.0 0.00 0.00 0.00 78 1011.8
20260904061704 78 131 0.0 0.0 0.00 0.00 0.00 78 1011.8
20260904061204 78 131 0.0 0.0 0.00 0.00 0.00 78 1011.8
20260904060704 78 131 0.0 0.0 0.00 0.00 0.00 78 1011.9
20260904055704 78 131 0.0 0.0 0.00 0.00 0.00 77 1011.8
20260904054704 78 131 0.0 0.0 0.00 0.00 0.00 76 1011.7
20260904053704 79 131 0.0 0.0 0.00 0.00 0.00 76 1011.7
20260904053204 79 131 0.0 0.0 0.00 0.00 0.00 76 1011.6
20260904052703 79 131 0.0 0.0 0.00 0.00 0.00 75 1011.7
20260904052204 79 131 0.0 0.0 0.00 0.00 0.00 75 1011.6
20260904051703 79 131 0.0 0.0 0.00 0.00 0.00 74 1011.6
20260904051204 80 131 0.0 0.0 0.00 0.00 0.00 74 1011.5
20260904050703 80 131 0.0 0.0 0.00 0.00 0.00 74 1011.6
20260904050204 80 131 0.0 0.0 0.00 0.00 0.00 74 1011.6
20260904045704 80 131 0.0 0.0 0.00 0.00 0.00 73 1011.6
20260904045204 80 131 0.0 0.0 0.00 0.00 0.00 73 1011.5
20260904044704 80 131 0.0 0.0 0.00 0.00 0.00 72 1011.5
20260904044204 80 131 0.0 0.0 0.00 0.00 0.00 72 1011.4
20260904043704 80 131 0.0 0.0 0.00 0.00 0.00 72 1011.5
20260904043204 80 131 0.0 0.0 0.00 0.00 0.00 72 1011.4
20260904042204 81 131 0.0 0.0 0.00 0.00 0.00 71 1011.5
20260904041704 81 131 0.0 0.0 0.00 0.00 0.00 71 1011.5
20260904040704 81 131 0.0 0.0 0.00 0.00 0.00 70 1011.5
20260904040204 81 131 0.0 0.0 0.00 0.00 0.00 70 1011.5
20260904035705 81 131 0.0 0.0 0.00 0.00 0.00 70 1011.5
20260904035204 81 130 0.0 0.0 0.00 0.00 0.00 70 1011.5
20260904034705 81 130 0.0 0.0 0.00 0.00 0.00 70 1011.5
20260904034204 82 130 0.0 0.0 0.00 0.00 0.00 69 1011.5
20260904032704 82 120 0.0 0.0 0.00 0.00 0.00 68 1011.5
20260904032204 82 120 0.0 1.0 0.00 0.00 0.00 68 1011.5
20260904031704 82 77 0.0 0.0 0.00 0.00 0.00 68 1011.5
20260904031204 82 77 0.0 0.0 0.00 0.00 0.00 67 1011.5
20260904025704 83 181 0.0 1.0 0.00 0.00 0.00 67 1011.4
20260904025204 83 134 0.0 0.0 0.00 0.00 0.00 67 1011.4
20260904024704 83 134 0.0 0.0 0.00 0.00 0.00 66 1011.3
20260904024204 83 134 0.0 0.0 0.00 0.00 0.00 66 1011.3
20260904023704 83 134 0.0 0.0 0.00 0.00 0.00 66 1011.2
20260904023204 83 134 0.0 0.0 0.00 0.00 0.00 66 1011.1
20260904022204 83 134 0.0 0.0 0.00 0.00 0.00 65 1011.1
20260904021704 84 134 0.0 0.0 0.00 0.00 0.00 65 1011.0
20260904021204 84 134 0.0 0.0 0.00 0.00 0.00 65 1010.9
20260904020704 84 134 0.0 0.0 0.00 0.00 0.00 64 1010.8
20260904020204 84 134 0.0 0.0 0.00 0.00 0.00 63 1010.8
20260904015704 85 134 0.0 0.0 0.00 0.00 0.00 63 1010.8
20260904015204 85 179 0.0 0.0 0.00 0.00 0.00 62 1010.7
20260904014704 85 179 0.0 0.0 0.00 0.00 0.00 61 1010.6
20260904013704 86 179 0.0 0.0 0.00 0.00 0.00 60 1010.6
20260904013204 87 179 0.0 0.0 0.00 0.00 0.00 60 1010.4
20260904012704 87 162 0.0 0.0 0.00 0.00 0.00 59 1010.3
20260904012204 88 114 0.0 0.0 0.00 0.00 0.00 58 1010.2
20260904011703 88 114 0.0 0.0 0.00 0.00 0.00 57 1010.3
20260904011204 89 114 0.0 1.0 0.00 0.00 0.00 56 1010.1
20260904010704 89 106 0.0 2.0 0.00 0.00 0.00 56 1010.1
20260904010204 89 115 0.0 2.0 0.00 0.00 0.00 55 1010.0
20260904005704 90 167 0.0 3.0 0.00 0.00 0.00 54 1010.0
20260904005203 90 167 1.0 3.0 0.00 0.00 0.00 54 1009.9
20260904004704 90 168 1.0 7.0 0.00 0.00 0.00 53 1009.9
20260904004204 91 146 0.0 2.0 0.00 0.00 0.00 52 1009.9
20260904003704 91 170 0.0 1.0 0.00 0.00 0.00 51 1009.9
20260904003204 92 112 1.0 3.0 0.00 0.00 0.00 50 1009.9
20260904002704 92 132 1.0 3.0 0.00 0.00 0.00 49 1009.9
20260904002204 93 190 1.0 5.0 0.00 0.00 0.00 49 1009.8
20260904001705 93 138 1.0 5.0 0.00 0.00 0.00 48 1009.8
20260904000704 94 124 2.0 5.0 0.00 0.00 0.00 47 1009.7
20260904000204 95 183 0.0 3.0 0.00 0.00 0.00 47 1009.7
20260903235704 95 132 2.0 6.0 0.00 0.00 0.00 46 1009.8
20260903235204 95 52 2.0 9.0 0.00 0.00 0.00 46 1009.7
20260903234704 96 155 3.0 10.0 0.00 0.00 0.00 46 1009.7
20260903234204 96 152 2.0 9.0 0.00 0.00 0.00 46 1009.6
20260903233705 96 63 1.0 3.0 0.00 0.00 0.00 46 1009.5
20260903233204 96 149 1.0 9.0 0.00 0.00 0.00 46 1009.5
20260903232704 96 100 1.0 2.0 0.00 0.00 0.00 45 1009.5
20260903231704 96 222 2.0 5.0 0.00 0.00 0.00 45 1009.5
20260903231204 95 200 2.0 6.0 0.00 0.00 0.00 45 1009.6
20260903230705 95 176 1.0 5.0 0.00 0.00 0.00 45 1009.5
20260903230204 95 105 2.0 5.0 0.00 0.00 0.00 45 1009.6
20260903225204 96 200 3.0 7.0 0.00 0.00 0.00 44 1009.6
20260903224204 96 192 4.0 8.0 0.00 0.00 0.00 43 1009.5
20260903223704 97 194 4.0 9.0 0.00 0.00 0.00 42 1009.4
20260903223204 98 149 3.0 6.0 0.00 0.00 0.00 41 1009.4
20260903222704 98 185 1.0 7.0 0.00 0.00 0.00 42 1009.4
20260903222204 98 204 7.0 13.0 0.00 0.00 0.00 41 1009.4
20260903221704 99 222 3.0 12.0 0.00 0.00 0.00 40 1009.3
20260903221204 99 193 3.0 7.0 0.00 0.00 0.00 40 1009.3
20260903220704 100 204 3.0 12.0 0.00 0.00 0.00 40 1009.4
20260903220204 99 73 2.0 3.0 0.00 0.00 0.00 40 1009.4
20260903215704 99 160 2.0 7.0 0.00 0.00 0.00 40 1009.5
20260903215204 99 27 1.0 3.0 0.00 0.00 0.00 40 1009.4
20260903214704 99 129 3.0 9.0 0.00 0.00 0.00 40 1009.5
20260903214204 99 196 5.0 13.0 0.00 0.00 0.00 39 1009.5
20260903213704 100 166 4.0 10.0 0.00 0.00 0.00 40 1009.5
20260903213204 100 112 1.0 6.0 0.00 0.00 0.00 39 1009.6
20260903212704 99 136 3.0 10.0 0.00 0.00 0.00 40 1009.6
20260903212204 99 58 2.0 10.0 0.00 0.00 0.00 40 1009.5
20260903211204 99 120 3.0 12.0 0.00 0.00 0.00 41 1009.6
20260903210704 99 94 2.0 5.0 0.00 0.00 0.00 41 1009.6
20260903210204 99 100 3.0 10.0 0.00 0.00 0.00 41 1009.7
20260903205704 100 203 4.0 10.0 0.00 0.00 0.00 41 1009.7
20260903204704 99 285 3.0 9.0 0.00 0.00 0.00 42 1009.7
20260903204204 100 34 2.0 5.0 0.00 0.00 0.00 41 1009.8
20260903203704 100 86 2.0 9.0 0.00 0.00 0.00 42 1009.8
20260903203204 100 181 1.0 5.0 0.00 0.00 0.00 42 1010.0
20260903202704 99 107 2.0 3.0 0.00 0.00 0.00 42 1010.0
20260903202204 99 158 2.0 7.0 0.00 0.00 0.00 43 1010.0
20260903201704 98 88 2.0 3.0 0.00 0.00 0.00 44 1010.0
20260903201204 98 74 3.0 5.0 0.00 0.00 0.00 44 1010.2
20260903200703 98 93 5.0 14.0 0.00 0.00 0.00 44 1010.2
20260903200204 98 196 3.0 8.0 0.00 0.00 0.00 44 1010.2
20260903195703 97 154 4.0 8.0 0.00 0.00 0.00 45 1010.2
20260903195203 97 17 2.0 6.0 0.00 0.00 0.00 45 1010.4
20260903194704 98 106 3.0 7.0 0.00 0.00 0.00 44 1010.4
20260903194204 99 156 2.0 9.0 0.00 0.00 0.00 44 1010.3
20260903193203 99 110 2.0 9.0 0.00 0.00 0.00 44 1010.5
20260903192703 98 148 3.0 12.0 0.00 0.00 0.00 44 1010.6
20260903192203 98 192 2.0 12.0 0.00 0.00 0.00 43 1010.7
20260903191704 97 167 2.0 9.0 0.00 0.00 0.00 44 1010.8
20260903191204 98 163 4.0 9.0 0.00 0.00 0.00 42 1010.8
20260903190703 97 220 5.0 12.0 0.00 0.00 0.00 43 1011.0
20260903190204 97 137 4.0 7.0 0.00 0.00 0.00 44 1010.9
20260903185704 97 82 1.0 12.0 0.00 0.00 0.00 45 1011.0
20260903185203 97 190 4.0 10.0 0.00 0.00 0.00 45 1011.2
20260903184703 98 265 3.0 8.0 0.00 0.00 0.00 44 1011.1
20260903184158 98 221 2.0 7.0 0.00 0.00 0.00 45 1011.2
20260903183657 97 144 2.0 8.0 0.00 0.00 0.00 46 1011.2
20260903183158 97 175 3.0 8.0 0.00 0.00 0.00 46 1011.4
20260903182658 97 176 3.0 7.0 0.00 0.00 0.00 47 1011.5
20260903182158 96 149 3.0 9.0 0.00 0.00 0.00 47 1011.4
20260903181657 96 110 2.0 12.0 0.00 0.00 0.00 48 1011.5
20260903181158 96 227 1.0 7.0 0.00 0.00 0.00 49 1011.7
20260903180157 95 168 3.0 12.0 0.00 0.00 0.00 49 1011.6
20260903175658 95 135 2.0 7.0 0.00 0.00 0.00 49 1011.8
20260903175157 95 243 3.0 8.0 0.00 0.00 0.00 50 1011.9
20260903174657 94 164 3.0 9.0 0.00 0.00 0.00 50 1012.0
20260903174158 94 199 5.0 12.0 0.00 0.00 0.00 50 1012.0
20260903173157 94 189 6.0 13.0 0.00 0.00 0.00 50 1012.3
20260903172657 94 138 3.0 13.0 0.00 0.00 0.00 51 1012.4
20260903172157 94 203 2.0 12.0 0.00 0.00 0.00 51 1012.3
20260903171658 93 168 3.0 8.0 0.00 0.00 0.00 52 1012.4
20260903170657 93 179 3.0 12.0 0.00 0.00 0.00 52 1012.6
20260903170158 93 151 3.0 8.0 0.00 0.00 0.00 54 1012.5
20260903165658 92 287 5.0 15.0 0.00 0.00 0.00 53 1012.7
20260903165157 92 193 3.0 10.0 0.00 0.00 0.00 53 1012.7
20260903164657 92 159 5.0 10.0 0.00 0.00 0.00 54 1012.9
20260903163658 92 178 4.0 8.0 0.00 0.00 0.00 55 1012.8
20260903163157 92 171 6.0 12.0 0.00 0.00 0.00 55 1013.0
20260903162657 92 113 2.0 7.0 0.00 0.00 0.00 55 1013.0
20260903161657 91 107 2.0 6.0 0.00 0.00 0.00 57 1013.0
20260903161157 91 210 2.0 10.0 0.00 0.00 0.00 58 1013.1
20260903160157 90 152 2.0 10.0 0.00 0.00 0.00 59 1013.1
20260903155657 90 126 2.0 5.0 0.00 0.00 0.00 59 1013.1
20260903154657 89 168 2.0 9.0 0.00 0.00 0.00 61 1013.2
20260903154157 89 228 4.0 12.0 0.00 0.00 0.00 61 1013.2
20260903153657 88 228 3.0 8.0 0.00 0.00 0.00 62 1013.2
20260903153157 88 234 4.0 10.0 0.00 0.00 0.00 62 1013.3
20260903152657 88 207 6.0 13.0 0.00 0.00 0.00 61 1013.3
20260903151657 87 212 4.0 10.0 0.00 0.00 0.00 62 1013.3
20260903151157 87 173 3.0 8.0 0.00 0.00 0.00 64 1013.4
20260903150657 86 155 3.0 8.0 0.00 0.00 0.00 65 1013.3
20260903150157 86 168 4.0 12.0 0.00 0.00 0.00 66 1013.3
20260903145658 86 216 7.0 12.0 0.00 0.00 0.00 66 1013.4
20260903145157 86 146 3.0 8.0 0.00 0.00 0.00 68 1013.4
20260903144657 85 221 2.0 5.0 0.00 0.00 0.00 69 1013.5
20260903144157 85 201 1.0 3.0 0.00 0.00 0.00 70 1013.5
20260903143657 85 218 1.0 3.0 0.00 0.00 0.00 70 1013.5
20260903143156 85 201 3.0 9.0 0.00 0.00 0.00 69 1013.6
20260903142657 84 199 1.0 3.0 0.00 0.00 0.00 72 1013.6
20260903142157 84 120 1.0 3.0 0.00 0.00 0.00 73 1013.6
20260903141657 84 215 2.0 3.0 0.00 0.00 0.00 73 1013.6
20260903141156 84 204 0.0 2.0 0.00 0.00 0.00 73 1013.6
20260903132703 81 121 0.0 1.0 0.00 0.00 0.00 80 1013.9
20260903132204 80 161 0.0 1.0 0.00 0.00 0.00 82 1013.9
20260903131703 79 115 0.0 0.0 0.00 0.00 0.00 84 1013.8
20260903131204 78 125 0.0 0.0 0.00 0.00 0.00 85 1013.8
20260903130704 77 100 0.0 1.0 0.00 0.00 0.00 87 1013.8
20260903130204 75 98 0.0 0.0 0.00 0.00 0.00 88 1013.9
20260903124204 72 77 0.0 0.0 0.00 0.00 0.00 92 1013.6
20260903123703 72 77 0.0 0.0 0.00 0.00 0.00 93 1013.6
20260903123203 71 77 0.0 0.0 0.00 0.00 0.00 92 1013.6
20260903122704 71 77 0.0 0.0 0.00 0.00 0.00 92 1013.5
20260903121204 71 77 0.0 0.0 0.00 0.00 0.00 91 1013.5
20260903115703 72 77 0.0 0.0 0.00 0.00 0.00 90 1013.3
20260903115203 72 77 0.0 0.0 0.00 0.00 0.00 90 1013.3
20260903113703 73 77 0.0 0.0 0.00 0.00 0.00 89 1013.2
20260903112204 73 77 0.0 0.0 0.00 0.00 0.00 89 1013.1
20260903111703 73 77 0.0 0.0 0.00 0.00 0.00 88 1013.1
20260903110704 74 94 0.0 0.0 0.00 0.00 0.00 88 1013.1
20260903110203 74 94 0.0 0.0 0.00 0.00 0.00 88 1013.2
20260903105704 74 94 0.0 0.0 0.00 0.00 0.00 88 1013.1
20260903105204 73 91 0.0 0.0 0.00 0.00 0.00 88 1013.1
20260903104703 73 90 0.0 0.0 0.00 0.00 0.00 88 1013.1
20260903104203 73 90 0.0 0.0 0.00 0.00 0.00 88 1013.0
20260903103704 73 90 0.0 0.0 0.00 0.00 0.00 87 1013.0
20260903102704 74 90 0.0 0.0 0.00 0.00 0.00 87 1013.0
20260903101704 74 90 0.0 0.0 0.00 0.00 0.00 86 1013.0
20260903101204 75 90 0.0 0.0 0.00 0.00 0.00 86 1013.0
20260903100204 75 90 0.0 0.0 0.00 0.00 0.00 86 1013.0
20260903095703 75 90 0.0 0.0 0.00 0.00 0.00 86 1012.9
20260903095204 75 90 0.0 0.0 0.00 0.00 0.00 85 1012.9
20260903094704 75 90 0.0 0.0 0.00 0.00 0.00 85 1012.8
20260903094203 75 90 0.0 0.0 0.00 0.00 0.00 85 1012.8